| time (UTC) | temp F | wind direction | speed MPH | gust MPH | rain 1hr in | rain 24hr in | rain mn in | humidity % | barometer mb |
| 20260508141551 | 57 | 76 | 6.0 | 10.0 | 0.00 | 0.90 | 0.01 | 67 | 1000.8 |
| 20260508140059 | 56 | 69 | 3.0 | 10.0 | 0.00 | 0.90 | 0.01 | 68 | 1000.9 |
| 20260508134549 | 56 | 66 | 7.0 | 11.0 | 0.00 | 0.90 | 0.01 | 69 | 1001.2 |
| 20260508133046 | 56 | 32 | 3.0 | 9.0 | 0.00 | 0.90 | 0.01 | 73 | 1001.3 |
| 20260508131545 | 55 | 15 | 6.0 | 10.0 | 0.00 | 0.90 | 0.01 | 75 | 1001.2 |
| 20260508130041 | 55 | 82 | 6.0 | 10.0 | 0.00 | 0.90 | 0.01 | 80 | 1001.3 |
| 20260508124538 | 53 | 68 | 3.0 | 9.0 | 0.00 | 0.90 | 0.01 | 81 | 1001.3 |
| 20260508123137 | 53 | 36 | 4.0 | 9.0 | 0.00 | 0.90 | 0.01 | 84 | 1001.2 |
| 20260508121540 | 53 | 67 | 6.0 | 10.0 | 0.00 | 0.90 | 0.01 | 88 | 1001.2 |
| 20260508120038 | 52 | 51 | 1.0 | 5.0 | 0.00 | 0.90 | 0.01 | 92 | 1001.2 |
| 20260508114528 | 51 | 86 | 2.0 | 6.0 | 0.00 | 0.90 | 0.01 | 95 | 1001.5 |
| 20260508113026 | 50 | 348 | 0.0 | 3.0 | 0.00 | 0.90 | 0.01 | 100 | 1001.5 |
| 20260508111529 | 49 | 5 | 0.0 | 3.0 | 0.01 | 0.90 | 0.01 | 100 | 1001.5 |
| 20260508110023 | 47 | 355 | 0.0 | 3.0 | 0.01 | 0.90 | 0.01 | 100 | 1001.5 |
| 20260508104523 | 46 | 225 | 0.0 | 1.0 | 0.01 | 0.90 | 0.01 | 100 | 1001.5 |
| 20260508103025 | 43 | 225 | 0.0 | 0.0 | 0.01 | 0.90 | 0.01 | 100 | 1001.8 |
| 20260508101522 | 41 | 225 | 0.0 | 0.0 | 0.00 | 0.89 | 0.00 | 100 | 1001.7 |
| 20260508100022 | 41 | 225 | 0.0 | 0.0 | 0.00 | 0.89 | 0.00 | 100 | 1001.4 |
| 20260508094520 | 41 | 225 | 0.0 | 3.0 | 0.00 | 0.89 | 0.00 | 100 | 1001.6 |
| 20260508093019 | 41 | 224 | 0.0 | 2.0 | 0.00 | 0.89 | 0.00 | 100 | 1001.3 |
| 20260508091521 | 41 | 224 | 0.0 | 2.0 | 0.00 | 0.89 | 0.00 | 100 | 1001.2 |
| 20260508090014 | 42 | 228 | 0.0 | 3.0 | 0.00 | 0.89 | 0.00 | 100 | 1000.9 |
| 20260508084514 | 42 | 228 | 2.0 | 3.0 | 0.00 | 0.89 | 0.00 | 100 | 1001.2 |
| 20260508083012 | 42 | 228 | 2.0 | 4.0 | 0.00 | 0.89 | 0.00 | 100 | 1001.3 |
| 20260508081510 | 42 | 215 | 1.0 | 3.0 | 0.00 | 0.89 | 0.00 | 100 | 1001.0 |
| 20260508080008 | 43 | 215 | 0.0 | 3.0 | 0.00 | 0.89 | 0.00 | 100 | 1000.9 |
| 20260508074507 | 43 | 215 | 0.0 | 3.0 | 0.00 | 0.89 | 0.00 | 100 | 1000.7 |
| 20260508073002 | 44 | 215 | 0.0 | 2.0 | 0.00 | 0.89 | 0.00 | 100 | 1000.7 |
| 20260508071602 | 44 | 216 | 2.0 | 4.0 | 0.00 | 0.89 | 0.00 | 100 | 1001.0 |
| 20260508070100 | 44 | 215 | 1.0 | 3.0 | 0.00 | 0.89 | 0.00 | 100 | 1001.0 |
| 20260508064558 | 45 | 215 | 0.0 | 4.0 | 0.00 | 0.89 | 0.00 | 100 | 1000.8 |
| 20260508063102 | 45 | 213 | 2.0 | 4.0 | 0.00 | 0.89 | 0.00 | 100 | 1001.1 |
| 20260508061559 | 45 | 213 | 2.0 | 3.0 | 0.00 | 0.89 | 0.00 | 100 | 1000.9 |
| 20260508060053 | 46 | 213 | 0.0 | 3.0 | 0.00 | 0.89 | 0.00 | 100 | 1001.1 |
| 20260508054551 | 46 | 213 | 2.0 | 3.0 | 0.00 | 0.89 | 0.00 | 100 | 1001.2 |
| 20260508053059 | 47 | 212 | 1.0 | 3.0 | 0.00 | 0.89 | 0.00 | 100 | 1001.2 |
| 20260508051550 | 47 | 209 | 0.0 | 3.0 | 0.00 | 0.89 | 0.00 | 100 | 1001.1 |
| 20260508050044 | 47 | 209 | 0.0 | 1.0 | 0.00 | 0.89 | 0.00 | 100 | 1001.0 |
| 20260508044544 | 47 | 209 | 0.0 | 1.0 | 0.00 | 0.89 | 0.00 | 100 | 1000.9 |
| 20260508043049 | 48 | 209 | 1.0 | 2.0 | 0.00 | 0.89 | 0.00 | 100 | 1000.8 |
| 20260508041541 | 48 | 209 | 0.0 | 2.0 | 0.00 | 0.89 | 0.00 | 100 | 1001.1 |
| 20260508040038 | 49 | 209 | 2.0 | 4.0 | 0.00 | 0.89 | 0.00 | 100 | 1001.3 |
| 20260508034539 | 49 | 209 | 1.0 | 3.0 | 0.00 | 0.89 | 0.00 | 100 | 1001.3 |
| 20260508033034 | 50 | 194 | 2.0 | 4.0 | 0.00 | 0.89 | 0.00 | 100 | 1001.6 |
| 20260508031531 | 50 | 194 | 0.0 | 2.0 | 0.00 | 0.89 | 0.00 | 100 | 1001.6 |
| 20260508030029 | 50 | 194 | 0.0 | 2.0 | 0.00 | 0.89 | 0.00 | 100 | 1001.3 |
| 20260508024528 | 51 | 190 | 1.0 | 3.0 | 0.00 | 0.89 | 0.89 | 100 | 1001.5 |
| 20260508023027 | 51 | 146 | 2.0 | 4.0 | 0.00 | 0.89 | 0.89 | 100 | 1001.5 |
| 20260508021528 | 51 | 101 | 0.0 | 0.0 | 0.00 | 0.89 | 0.89 | 100 | 1001.9 |
| 20260508020035 | 51 | 101 | 0.0 | 4.0 | 0.00 | 0.89 | 0.89 | 100 | 1001.6 |
| 20260508014527 | 51 | 304 | 0.0 | 5.0 | 0.00 | 0.89 | 0.89 | 100 | 1001.8 |
| 20260508013026 | 51 | 313 | 0.0 | 2.0 | 0.00 | 0.89 | 0.89 | 100 | 1001.8 |
| 20260508011526 | 52 | 313 | 0.0 | 3.0 | 0.00 | 0.89 | 0.89 | 100 | 1001.6 |
| 20260508010029 | 52 | 329 | 1.0 | 4.0 | 0.00 | 0.89 | 0.89 | 100 | 1001.3 |
| 20260508004525 | 52 | 148 | 2.0 | 3.0 | 0.00 | 0.89 | 0.89 | 100 | 1001.4 |
| 20260508003024 | 52 | 148 | 0.0 | 2.0 | 0.00 | 0.89 | 0.89 | 100 | 1001.4 |
| 20260508001524 | 52 | 148 | 0.0 | 0.0 | 0.00 | 0.89 | 0.89 | 100 | 1001.5 |
| 20260508000023 | 52 | 148 | 0.0 | 3.0 | 0.00 | 0.89 | 0.89 | 100 | 1001.4 |
| 20260507234531 | 52 | 279 | 1.0 | 2.0 | 0.00 | 0.89 | 0.89 | 100 | 1001.4 |
| 20260507233022 | 52 | 279 | 1.0 | 3.0 | 0.00 | 0.89 | 0.89 | 100 | 1001.6 |
| 20260507231521 | 52 | 279 | 0.0 | 0.0 | 0.00 | 0.89 | 0.89 | 100 | 1001.6 |
| 20260507230020 | 52 | 279 | 0.0 | 4.0 | 0.00 | 0.89 | 0.89 | 100 | 1001.7 |
| 20260507224525 | 52 | 284 | 0.0 | 4.0 | 0.00 | 0.89 | 0.89 | 100 | 1001.5 |
| 20260507223020 | 52 | 180 | 2.0 | 3.0 | 0.00 | 0.89 | 0.89 | 99 | 1001.5 |
| 20260507221520 | 52 | 149 | 2.0 | 5.0 | 0.00 | 0.89 | 0.89 | 99 | 1001.3 |
| 20260507220019 | 52 | 206 | 2.0 | 9.0 | 0.00 | 0.89 | 0.89 | 99 | 1001.6 |
| 20260507214523 | 53 | 124 | 2.0 | 9.0 | 0.00 | 0.89 | 0.89 | 99 | 1001.5 |
| 20260507213019 | 53 | 211 | 4.0 | 7.0 | 0.00 | 0.89 | 0.89 | 99 | 1001.6 |
| 20260507211517 | 53 | 204 | 6.0 | 11.0 | 0.00 | 0.89 | 0.89 | 99 | 1001.8 |
| 20260507210017 | 54 | 244 | 4.0 | 7.0 | 0.01 | 0.89 | 0.89 | 99 | 1001.9 |
| 20260507204516 | 53 | 180 | 1.0 | 8.0 | 0.02 | 0.89 | 0.89 | 100 | 1001.2 |
| 20260507203016 | 53 | 126 | 3.0 | 7.0 | 0.05 | 0.89 | 0.89 | 100 | 1000.8 |
| 20260507201513 | 53 | 102 | 2.0 | 5.0 | 0.08 | 0.89 | 0.89 | 99 | 1001.1 |
| 20260507200013 | 53 | 96 | 3.0 | 8.0 | 0.12 | 0.88 | 0.88 | 100 | 1001.2 |
| 20260507194511 | 53 | 88 | 0.0 | 3.0 | 0.19 | 0.87 | 0.87 | 100 | 1002.2 |
| 20260507193008 | 53 | 83 | 2.0 | 5.0 | 0.24 | 0.84 | 0.84 | 100 | 1002.0 |
| 20260507191506 | 53 | 96 | 1.0 | 5.0 | 0.27 | 0.81 | 0.81 | 100 | 1002.5 |
| 20260507190003 | 53 | 223 | 3.0 | 7.0 | 0.31 | 0.75 | 0.75 | 100 | 1003.2 |
| 20260507184501 | 53 | 213 | 3.0 | 8.0 | 0.35 | 0.68 | 0.68 | 99 | 1003.4 |
| 20260507183100 | 52 | 211 | 4.0 | 10.0 | 0.48 | 0.60 | 0.60 | 99 | 1003.9 |
| 20260507181558 | 52 | 183 | 3.0 | 9.0 | 0.50 | 0.54 | 0.54 | 99 | 1004.0 |
| 20260507180057 | 52 | 203 | 2.0 | 5.0 | 0.43 | 0.45 | 0.45 | 99 | 1004.4 |
| 20260507174606 | 52 | 200 | 7.0 | 11.0 | 0.34 | 0.34 | 0.34 | 98 | 1004.7 |
| 20260507173055 | 52 | 173 | 6.0 | 16.0 | 0.12 | 0.12 | 0.12 | 98 | 1004.7 |
| 20260507171603 | 53 | 183 | 9.0 | 17.0 | 0.04 | 0.04 | 0.04 | 98 | 1003.9 |
| 20260507170053 | 53 | 193 | 8.0 | 17.0 | 0.02 | 0.02 | 0.02 | 98 | 1004.0 |
| 20260507164550 | 53 | 184 | 7.0 | 15.0 | 0.00 | 0.00 | 0.00 | 98 | 1004.5 |
| 20260507163048 | 53 | 175 | 8.0 | 13.0 | 0.00 | 0.00 | 0.00 | 97 | 1004.8 |
| 20260507161545 | 53 | 190 | 10.0 | 20.0 | 0.00 | 0.00 | 0.00 | 95 | 1005.5 |
| 20260507160046 | 54 | 170 | 8.0 | 22.0 | 0.00 | 0.00 | 0.00 | 95 | 1005.6 |
| 20260507154540 | 54 | 163 | 8.0 | 21.0 | 0.00 | 0.00 | 0.00 | 95 | 1006.2 |
| 20260507153038 | 54 | 179 | 13.0 | 21.0 | 0.00 | 0.00 | 0.00 | 95 | 1006.2 |
| 20260507151537 | 55 | 167 | 10.0 | 24.0 | 0.00 | 0.00 | 0.00 | 94 | 1006.9 |
| 20260507150034 | 56 | 217 | 11.0 | 21.0 | 0.00 | 0.00 | 0.00 | 92 | 1007.2 |
| 20260507144546 | 56 | 209 | 13.0 | 22.0 | 0.00 | 0.00 | 0.00 | 92 | 1007.3 |
| 20260507143029 | 56 | 238 | 13.0 | 26.0 | 0.00 | 0.00 | 0.00 | 94 | 1007.4 |